VOE2515 LFML-LFST

Flight info

Callsign VOE2515
Flight time 1h 0m
Altitude 30000
Route ETREK DCT MOLUS DCT PENDU DCT LUL
Aircraft A319/M-SDFGIJ1RWY/LB1

Departure

Time 2026-05-07 17:01
Airport Marseille Provence Airport (LFML)

Arrival

Time 2026-05-07 18:02
Airport Strasbourg Airport (LFST)
Time Latitude Longitude Altitude Speed Heading
2026-05-07 16:34 43.44164 5.21767 38 ft 0 kts 89°
2026-05-07 16:58 43.44142 5.21796 38 ft 9 kts 159°
2026-05-07 16:58 43.44059 5.21737 38 ft 19 kts 223°
2026-05-07 16:58 43.43932 5.21772 38 ft 26 kts 135°
2026-05-07 16:58 43.43792 5.21972 37 ft 30 kts 135°
2026-05-07 16:59 43.43617 5.22127 37 ft 29 kts 148°
2026-05-07 16:59 43.43442 5.22266 38 ft 29 kts 154°
2026-05-07 16:59 43.43275 5.22415 37 ft 30 kts 135°
2026-05-07 16:59 43.43132 5.22611 37 ft 29 kts 135°
2026-05-07 17:00 43.42991 5.22809 37 ft 26 kts 134°
2026-05-07 17:00 43.42896 5.22938 37 ft 19 kts 145°
2026-05-07 17:00 43.42784 5.22894 37 ft 20 kts 234°
2026-05-07 17:00 43.42816 5.22722 35 ft 22 kts 312°
2026-05-07 17:01 43.42957 5.22521 36 ft 57 kts 314°
2026-05-07 17:01 43.43445 5.21823 36 ft 142 kts 314°
2026-05-07 17:01 43.44257 5.20694 400 ft 174 kts 311°
2026-05-07 17:01 43.45112 5.19491 1329 ft 177 kts 310°
2026-05-07 17:02 43.45970 5.18256 2204 ft 183 kts 313°
2026-05-07 17:02 43.46913 5.16904 2779 ft 208 kts 314°
2026-05-07 17:02 43.47976 5.15381 3456 ft 233 kts 314°
2026-05-07 17:02 43.49168 5.13676 4195 ft 258 kts 314°
2026-05-07 17:03 43.50436 5.11859 5246 ft 268 kts 314°
2026-05-07 17:03 43.51741 5.09992 6403 ft 274 kts 314°
2026-05-07 17:03 43.53074 5.08088 7541 ft 278 kts 313°
2026-05-07 17:03 43.54427 5.06155 8700 ft 282 kts 313°
2026-05-07 17:04 43.55797 5.04191 9849 ft 287 kts 312°
2026-05-07 17:04 43.57218 5.02152 10599 ft 306 kts 311°
2026-05-07 17:04 43.58752 4.99953 11086 ft 330 kts 311°
2026-05-07 17:04 43.60420 4.97583 11489 ft 355 kts 311°
2026-05-07 17:05 43.62192 4.95080 12018 ft 371 kts 313°
2026-05-07 17:05 43.64016 4.92513 12855 ft 377 kts 312°
2026-05-07 17:05 43.65906 4.89952 13719 ft 384 kts 317°
2026-05-07 17:05 43.68063 4.87777 14463 ft 392 kts 327°
2026-05-07 17:06 43.70534 4.86120 15212 ft 399 kts 338°
2026-05-07 17:06 43.73209 4.85004 15989 ft 404 kts 343°
2026-05-07 17:06 43.75966 4.83942 16788 ft 408 kts 343°
2026-05-07 17:06 43.78714 4.82869 17551 ft 413 kts 343°
2026-05-07 17:07 43.81496 4.81771 18276 ft 418 kts 342°
2026-05-07 17:07 43.84299 4.80661 18897 ft 422 kts 342°
2026-05-07 17:07 43.87130 4.79538 19523 ft 425 kts 342°
2026-05-07 17:07 43.89996 4.78406 20146 ft 428 kts 342°
2026-05-07 17:08 43.92874 4.77269 20755 ft 432 kts 342°
2026-05-07 17:08 43.95772 4.76125 21352 ft 435 kts 342°
2026-05-07 17:08 43.98663 4.74984 21922 ft 438 kts 342°
2026-05-07 17:08 44.01625 4.73877 22488 ft 442 kts 343°
2026-05-07 17:09 44.04636 4.72889 23041 ft 446 kts 345°
2026-05-07 17:09 44.07676 4.71980 23574 ft 449 kts 345°
2026-05-07 17:09 44.10745 4.71097 24018 ft 452 kts 345°
2026-05-07 17:09 44.13841 4.70208 24463 ft 455 kts 345°
2026-05-07 17:10 44.16950 4.69297 24890 ft 458 kts 345°
2026-05-07 17:10 44.20082 4.68355 25290 ft 461 kts 344°
2026-05-07 17:10 44.23233 4.67386 25694 ft 464 kts 344°
2026-05-07 17:10 44.26392 4.66399 26091 ft 467 kts 344°
2026-05-07 17:11 44.29579 4.65397 26478 ft 470 kts 343°
2026-05-07 17:11 44.32773 4.64395 26871 ft 472 kts 343°
2026-05-07 17:11 44.35999 4.63387 27239 ft 475 kts 343°
2026-05-07 17:11 44.39239 4.62376 27612 ft 478 kts 343°
2026-05-07 17:12 44.42501 4.61362 27959 ft 480 kts 343°
2026-05-07 17:12 44.45776 4.60346 28359 ft 482 kts 343°
2026-05-07 17:12 44.49046 4.59334 28887 ft 481 kts 343°
2026-05-07 17:12 44.52314 4.58322 29428 ft 480 kts 343°
2026-05-07 17:13 44.55568 4.57309 30013 ft 479 kts 343°
2026-05-07 17:13 44.58819 4.56293 30448 ft 478 kts 343°
2026-05-07 17:13 44.60972 4.55618 30765 ft 478 kts 343°
2026-05-07 17:13 44.64229 4.54645 31236 ft 479 kts 346°
2026-05-07 17:14 44.67562 4.54219 31716 ft 483 kts 355°
2026-05-07 17:14 44.70923 4.54524 32207 ft 487 kts
2026-05-07 17:14 44.74278 4.55193 32705 ft 486 kts
2026-05-07 17:14 44.77620 4.55855 33229 ft 484 kts
2026-05-07 17:15 44.80888 4.57073 33727 ft 490 kts 19°
2026-05-07 17:15 44.83870 4.59430 34147 ft 495 kts 36°
2026-05-07 17:15 44.86491 4.62584 34544 ft 496 kts 40°
2026-05-07 17:15 44.89075 4.65812 34948 ft 497 kts 40°
2026-05-07 17:16 44.91650 4.69048 35372 ft 496 kts 40°
2026-05-07 17:16 44.94220 4.72286 35787 ft 496 kts 40°
2026-05-07 17:16 44.96790 4.75529 35926 ft 496 kts 40°
2026-05-07 17:16 44.99367 4.78777 35954 ft 496 kts 40°
2026-05-07 17:17 45.04522 4.85257 35967 ft 495 kts 40°
2026-05-07 17:17 45.09678 4.91751 35969 ft 495 kts 40°
2026-05-07 17:18 45.14814 4.98257 35970 ft 494 kts 40°
2026-05-07 17:18 45.19945 5.04763 35972 ft 495 kts 40°
2026-05-07 17:19 45.25072 5.11282 35972 ft 495 kts 40°
2026-05-07 17:19 45.30197 5.17819 35988 ft 495 kts 40°
2026-05-07 17:20 45.35311 5.24365 35987 ft 494 kts 40°
2026-05-07 17:20 45.40416 5.30912 35986 ft 494 kts 40°
2026-05-07 17:21 45.45523 5.37481 35998 ft 494 kts 40°
2026-05-07 17:21 45.50594 5.44018 35995 ft 494 kts 40°
2026-05-07 17:22 45.55694 5.50604 35988 ft 494 kts 40°
2026-05-07 17:22 45.60783 5.57183 35981 ft 493 kts 40°
2026-05-07 17:23 45.65871 5.63791 35981 ft 493 kts 40°
2026-05-07 17:23 45.71088 5.70106 35980 ft 489 kts 28°
2026-05-07 17:24 45.74153 5.72133 35981 ft 482 kts 13°
2026-05-07 17:24 45.77368 5.73069 35975 ft 476 kts
2026-05-07 17:24 45.83976 5.74305 35983 ft 476 kts
2026-05-07 17:25 45.90504 5.75499 35988 ft 476 kts
2026-05-07 17:25 45.97114 5.76728 35990 ft 475 kts
2026-05-07 17:26 46.03665 5.77972 36007 ft 475 kts
2026-05-07 17:26 46.10222 5.79210 36018 ft 475 kts
2026-05-07 17:27 46.16736 5.80429 36011 ft 474 kts
2026-05-07 17:27 46.23283 5.81673 36024 ft 474 kts
2026-05-07 17:28 46.29861 5.82933 36026 ft 474 kts
2026-05-07 17:28 46.36399 5.84177 36025 ft 474 kts
2026-05-07 17:29 46.42911 5.85414 36048 ft 473 kts
2026-05-07 17:29 46.49444 5.86657 36041 ft 473 kts
2026-05-07 17:30 46.55962 5.87895 36039 ft 472 kts
2026-05-07 17:30 46.62481 5.89148 36038 ft 472 kts
2026-05-07 17:31 46.69014 5.90400 36038 ft 472 kts
2026-05-07 17:31 46.75528 5.91660 36036 ft 472 kts
2026-05-07 17:32 46.82028 5.92921 36055 ft 472 kts
2026-05-07 17:32 46.87467 5.93974 36045 ft 472 kts
2026-05-07 17:33 46.95053 5.95457 36046 ft 472 kts
2026-05-07 17:33 47.01566 5.96724 36048 ft 472 kts
2026-05-07 17:34 47.08120 5.97995 36057 ft 471 kts
2026-05-07 17:34 47.14586 5.99264 36054 ft 471 kts
2026-05-07 17:35 47.21092 6.00539 36055 ft 471 kts
2026-05-07 17:35 47.27597 6.01814 36068 ft 471 kts
2026-05-07 17:36 47.34061 6.03414 36062 ft 475 kts 13°
2026-05-07 17:36 47.40192 6.07350 36065 ft 480 kts 25°
2026-05-07 17:37 47.46078 6.11897 36070 ft 480 kts 25°
2026-05-07 17:37 47.51996 6.16456 36066 ft 479 kts 25°
2026-05-07 17:38 47.57913 6.21043 36056 ft 479 kts 25°
2026-05-07 17:38 47.63820 6.25648 36063 ft 479 kts 25°
2026-05-07 17:39 47.69983 6.29234 36061 ft 472 kts
2026-05-07 17:39 47.76454 6.30295 36046 ft 467 kts
2026-05-07 17:40 47.82952 6.30918 36063 ft 468 kts
2026-05-07 17:40 47.86206 6.31240 35943 ft 463 kts
2026-05-07 17:40 47.89375 6.31559 35692 ft 451 kts
2026-05-07 17:41 47.92467 6.31870 35408 ft 441 kts
2026-05-07 17:41 47.95527 6.32176 34711 ft 440 kts
2026-05-07 17:41 47.98548 6.32472 34301 ft 433 kts
2026-05-07 17:41 48.01539 6.32763 33815 ft 427 kts
2026-05-07 17:42 48.04488 6.33051 33269 ft 422 kts
2026-05-07 17:42 48.07403 6.33336 32754 ft 417 kts
2026-05-07 17:42 48.10285 6.33616 32224 ft 413 kts
2026-05-07 17:42 48.13125 6.33894 31458 ft 406 kts
2026-05-07 17:43 48.15923 6.34169 30644 ft 400 kts
2026-05-07 17:43 48.18687 6.34442 29814 ft 395 kts
2026-05-07 17:43 48.21413 6.34710 28919 ft 390 kts
2026-05-07 17:43 48.24111 6.34973 28068 ft 386 kts
2026-05-07 17:44 48.26772 6.35255 27266 ft 382 kts
2026-05-07 17:44 48.29299 6.36401 26482 ft 382 kts 28°
2026-05-07 17:44 48.31309 6.38964 25711 ft 381 kts 53°
2026-05-07 17:44 48.32448 6.42510 24926 ft 377 kts 78°
2026-05-07 17:45 48.32690 6.46359 24113 ft 373 kts 89°
2026-05-07 17:45 48.32770 6.50247 23263 ft 371 kts 89°
2026-05-07 17:45 48.32839 6.54108 22416 ft 367 kts 89°
2026-05-07 17:45 48.32904 6.57911 21621 ft 363 kts 89°
2026-05-07 17:46 48.32968 6.61689 20852 ft 359 kts 89°
2026-05-07 17:46 48.33033 6.65419 20113 ft 355 kts 89°
2026-05-07 17:46 48.33101 6.69102 19390 ft 351 kts 89°
2026-05-07 17:46 48.33168 6.72758 18709 ft 348 kts 89°
2026-05-07 17:47 48.33232 6.76367 17993 ft 344 kts 89°
2026-05-07 17:47 48.33272 6.78748 17523 ft 341 kts 89°
2026-05-07 17:47 48.33329 6.82266 17308 ft 322 kts 89°
2026-05-07 17:47 48.33384 6.85509 17086 ft 307 kts 89°
2026-05-07 17:48 48.33437 6.88670 16644 ft 300 kts 89°
2026-05-07 17:48 48.33490 6.91795 16160 ft 297 kts 89°
2026-05-07 17:48 48.33544 6.94887 15677 ft 294 kts 89°
2026-05-07 17:48 48.33597 6.97941 15203 ft 291 kts 89°
2026-05-07 17:49 48.33563 7.00996 14509 ft 294 kts 102°
2026-05-07 17:49 48.32785 7.03774 14078 ft 285 kts 129°
2026-05-07 17:49 48.31305 7.05672 13581 ft 278 kts 156°
2026-05-07 17:49 48.29461 7.06313 13027 ft 272 kts 184°
2026-05-07 17:50 48.27672 7.05586 12484 ft 266 kts 212°
2026-05-07 17:50 48.26364 7.03697 11935 ft 262 kts 240°
2026-05-07 17:50 48.25843 7.01103 11387 ft 261 kts 269°
2026-05-07 17:50 48.26239 6.98484 10845 ft 261 kts 297°
2026-05-07 17:51 48.27450 6.96480 10310 ft 263 kts 326°
2026-05-07 17:51 48.29150 6.95516 10022 ft 262 kts 351°
2026-05-07 17:51 48.30949 6.95705 9878 ft 260 kts 16°
2026-05-07 17:51 48.32524 6.97011 9732 ft 261 kts 42°
2026-05-07 17:52 48.33573 6.99204 9608 ft 261 kts 68°
2026-05-07 17:52 48.33908 7.01824 9473 ft 259 kts 90°
2026-05-07 17:52 48.33918 7.04541 9340 ft 259 kts 91°
2026-05-07 17:52 48.33931 7.07253 9215 ft 259 kts 90°
2026-05-07 17:53 48.33944 7.09952 9074 ft 258 kts 90°
2026-05-07 17:53 48.33959 7.12655 8942 ft 258 kts 90°
2026-05-07 17:53 48.33975 7.15382 8601 ft 259 kts 90°
2026-05-07 17:53 48.33987 7.18092 8185 ft 256 kts 90°
2026-05-07 17:54 48.33999 7.20737 7637 ft 254 kts 90°
2026-05-07 17:54 48.34011 7.23386 7162 ft 250 kts 90°
2026-05-07 17:54 48.34021 7.25942 7033 ft 239 kts 90°
2026-05-07 17:54 48.34185 7.28376 6863 ft 231 kts 74°
2026-05-07 17:55 48.34897 7.30499 6726 ft 222 kts 53°
2026-05-07 17:55 48.35864 7.32252 6481 ft 220 kts 47°
2026-05-07 17:55 48.36886 7.33970 6145 ft 221 kts 46°
2026-05-07 17:55 48.37921 7.35714 5781 ft 223 kts 47°
2026-05-07 17:56 48.38928 7.37420 5444 ft 215 kts 47°
2026-05-07 17:56 48.39896 7.39064 5135 ft 203 kts 46°
2026-05-07 17:56 48.40797 7.40596 4810 ft 190 kts 47°
2026-05-07 17:56 48.41650 7.42044 4506 ft 177 kts 47°
2026-05-07 17:57 48.42414 7.43346 4247 ft 155 kts 46°
2026-05-07 17:57 48.42877 7.44132 4080 ft 144 kts 46°
2026-05-07 17:57 48.43713 7.45555 3799 ft 131 kts 45°
2026-05-07 17:57 48.44310 7.46569 3592 ft 128 kts 46°
2026-05-07 17:58 48.44896 7.47566 3395 ft 126 kts 45°
2026-05-07 17:58 48.45479 7.48558 3197 ft 126 kts 46°
2026-05-07 17:58 48.46068 7.49561 2984 ft 126 kts 46°
2026-05-07 17:58 48.46641 7.50537 2798 ft 126 kts 46°
2026-05-07 17:59 48.47217 7.51519 2602 ft 125 kts 46°
2026-05-07 17:59 48.47790 7.52496 2404 ft 124 kts 45°
2026-05-07 17:59 48.48361 7.53470 2202 ft 124 kts 46°
2026-05-07 17:59 48.48927 7.54436 2012 ft 123 kts 45°
2026-05-07 18:00 48.49494 7.55403 1818 ft 123 kts 45°
2026-05-07 18:00 48.50063 7.56378 1628 ft 122 kts 45°
2026-05-07 18:00 48.50622 7.57344 1445 ft 122 kts 46°
2026-05-07 18:00 48.51180 7.58302 1215 ft 123 kts 46°
2026-05-07 18:01 48.51758 7.59284 985 ft 123 kts 46°
2026-05-07 18:01 48.52319 7.60243 791 ft 124 kts 47°
2026-05-07 18:01 48.52889 7.61213 598 ft 123 kts 46°
2026-05-07 18:01 48.53459 7.62185 509 ft 117 kts 45°
2026-05-07 18:02 48.54109 7.63304 507 ft 27 kts 48°
2026-05-07 18:02 48.54263 7.63337 506 ft 21 kts 317°
2026-05-07 18:02 48.54335 7.63141 506 ft 22 kts 313°
2026-05-07 18:03 48.54360 7.62950 506 ft 22 kts 236°
2026-05-07 18:03 48.54305 7.62795 506 ft 12 kts 306°
2026-05-07 18:03 48.54362 7.62793 506 ft 2 kts